Location: Unspecified
(38.9820°N, 94.4650°W)
Time: 05:43:40
(UTC-05:00)

Okean 3 - Visible Passes

Search period start: 20 August 2014 00:00
Search period end: 30 August 2014 00:00
Orbit: 583 x 611 km, 82.5° (Epoch: 19 August)

Date Brightness Start Highest point End Pass type
(mag) Time Alt. Az. Time Alt. Az. Time Alt. Az.
20 Aug 3.7 06:07:08 10° S 06:11:21 78° E 06:15:34 10° N visible
22 Aug 6.4 04:52:45 10° ESE 04:55:07 15° E 04:57:30 10° NE visible
23 Aug 5.8 05:01:59 10° SE 05:05:20 24° E 05:08:42 10° NE visible
24 Aug 4.9 05:11:42 10° SSE 05:15:36 38° E 05:19:30 10° NNE visible
25 Aug 3.9 05:21:45 10° S 05:25:54 63° E 05:30:04 10° NNE visible
26 Aug 3.4 05:32:03 10° S 05:36:15 77° W 05:40:28 10° N visible
27 Aug 6.4 04:08:02 10° ESE 04:09:44 12° E 04:11:26 10° ENE visible
27 Aug 3.8 05:42:37 10° SSW 05:46:39 46° W 05:50:42 10° N visible
28 Aug 5.9 04:16:55 10° SE 04:19:55 20° E 04:22:57 10° NE visible
28 Aug 4.4 05:53:40 11° SW 05:57:06 28° WNW 06:00:45 10° NNW visible
29 Aug 5.1 04:27:58 19° SE 04:30:09 31° E 04:33:52 10° NNE visible
29 Aug 5.0 06:04:42 10° WSW 06:07:36 18° WNW 06:10:32 10° NNW visible
